sat.trackr.live / text

‹ back to catalog

STARLINK-34685

NORAD 64813 · 2025-150Z

PAYLOAD ACTIVE UNKNOWN

§ Identity

Operator
Country
US
Launch date
2025-07-16
Launch site
AFWTR
Launch vehicle
Mass (kg)
RCS (m²)

Purposes: comms

External: N2YO · Heavens-Above · Gunter

§ Orbital elements

Epoch: 2026-09-20T13:49:51.651264Z

Period
96.11 min
Inclination
70.0028°
Eccentricity
0.0003289
Mean motion
14.98337303 rev/d
Perigee alt
569.7 km
Apogee alt
574.3 km
Semi-major
6,950.2 km
B*
3.6368e-4
RAAN
3.2814°
Arg perigee
265.7486°
Mean anomaly
94.3297°
Rev number
6,570

§ Raw data

STARLINK-346851 64813U 25150Z   26263.57629226  .00004250  00000+0  36368-3 0  99922 64813  70.0028   3.2814 0003289 265.7486  94.3297 14.98337303 65702

JSON: /api/v1/satellites/64813 · /tle

For live sub-satellite position, see the globe view (requires WebGL).

§ Visibility from observer

Set your observer location to see the next 7 days of passes ≥ 10°. The values pass through the URL so the page stays shareable.

No JS? Fill the form by hand. The geolocation button needs JavaScript.